Lancaster, PA

6:21 AM EDT on April 27, 2017 (GMT -0400)
Lancaster

Weather History for KLNS - April, 2012

Change the Weather History Date:

Tuesday, April 17, 2012

  Actual Average Record
Temperature  
Mean Temperature 64 °F -  
Max Temperature 73 °F 66 °F 90 °F (2002)
Min Temperature 54 °F 41 °F 29 °F (1949)
Degree Days  
Heating Degree Days 1    
Growing Degree Days 14 (Base 50)    
Moisture  
Dew Point 40 °F    
Average Humidity 43    
Maximum Humidity 72    
Minimum Humidity 24    
Precipitation  
Precipitation 0.00 in - - ()
Sea Level Pressure  
Sea Level Pressure 30.13 in    
Wind  
Wind Speed 7 mph (WNW)    
Max Wind Speed 15 mph    
Max Gust Speed 20 mph    
Visibility 10 miles    
Events      
Averages and records for this station are not official NWS values.
T = Trace of Precipitation, MM = Missing Value Source: NWS Daily Summary

Daily Weather History Graph

Daily Weather History Graph

Search for Another Location

Airport or City:

Trip Planner

Search our weather history database for the weather conditions in past years. The results will help you decide how hot, cold, wet, or windy it might be!

Date:

Astronomy

Apr. 17, 2012 Rise Set
Actual Time 6:23 AM EDT 7:46 PM EDT
Civil Twilight 5:55 AM EDT 8:14 PM EDT
Nautical Twilight 5:21 AM EDT 8:48 PM EDT
Astronomical Twilight 4:45 AM EDT 9:24 PM EDT
Moon 4:19 AM EDT (4/17) 4:37 PM EDT (4/17)
Length of Visible Light 14h 19m
Length of Day
13h 22m
Waning Crescent, 12% of the Moon is Illuminated
Apr 17
Waning Crescent
Apr 21
New
Apr 29
First Quarter
May 5
Full
May 12
Last Quarter

Hourly Weather History & Observations

Time (EDT) Temp. Dew Point Humidity Pressure Visibility Wind Dir Wind Speed Gust Speed Precip Events Conditions
12:53 AM 69.1 °F 55.0 °F 61% 29.94 in 10.0 mi Calm Calm - N/A   Clear
1:53 AM 64.9 °F 55.0 °F 70% 29.96 in 10.0 mi WSW 4.6 mph - N/A   Clear
2:53 AM 63.0 °F 54.0 °F 72% 29.97 in 9.0 mi NW 5.8 mph - N/A   Clear
3:53 AM 64.9 °F 48.9 °F 56% 30.01 in 10.0 mi WNW 4.6 mph - N/A   Clear
4:53 AM 66.9 °F 46.0 °F 47% 30.03 in 10.0 mi NW 10.4 mph - N/A   Clear
5:53 AM 63.0 °F 43.0 °F 48% 30.07 in 10.0 mi WNW 9.2 mph - N/A   Clear
7:53 AM 64.0 °F 44.1 °F 48% 30.14 in 10.0 mi NW 4.6 mph - N/A   Clear
8:53 AM 64.9 °F 42.1 °F 43% 30.17 in 10.0 mi NW 11.5 mph - N/A   Clear
9:53 AM 64.9 °F 37.9 °F 37% 30.18 in 10.0 mi NNW 11.5 mph - N/A   Clear
10:53 AM 64.9 °F 37.9 °F 37% 30.20 in 10.0 mi WNW 13.8 mph 18.4 mph N/A   Clear
11:53 AM 68.0 °F 39.9 °F 36% 30.19 in 10.0 mi NW 9.2 mph - N/A   Clear
12:53 PM 69.1 °F 39.9 °F 35% 30.19 in 10.0 mi WNW 11.5 mph - N/A   Clear
1:53 PM 71.1 °F 37.0 °F 29% 30.18 in 10.0 mi WNW 10.4 mph - N/A   Clear
2:53 PM 73.0 °F 35.1 °F 25% 30.16 in 10.0 mi NW 15.0 mph 19.6 mph N/A   Clear
3:53 PM 71.1 °F 33.1 °F 25% 30.15 in 10.0 mi NW 12.7 mph - N/A   Clear
4:53 PM 69.1 °F 33.1 °F 26% 30.16 in 10.0 mi WNW 12.7 mph - N/A   Clear
5:53 PM 68.0 °F 30.0 °F 24% 30.17 in 10.0 mi NW 11.5 mph - N/A   Clear
6:53 PM 64.9 °F 35.1 °F 33% 30.17 in 10.0 mi West 9.2 mph - N/A   Clear
7:53 PM 61.0 °F 35.1 °F 38% 30.17 in 10.0 mi West 4.6 mph - N/A   Clear
8:53 PM 57.9 °F 35.1 °F 42% 30.18 in 10.0 mi West 4.6 mph - N/A   Clear
9:53 PM 55.0 °F 36.0 °F 49% 30.19 in 10.0 mi WNW 6.9 mph - N/A   Clear
10:53 PM 55.9 °F 36.0 °F 47% 30.18 in 10.0 mi West 5.8 mph - N/A   Clear
11:53 PM 54.0 °F 37.9 °F 55% 30.18 in 10.0 mi West 4.6 mph - N/A   Clear